{"data":{"norad_id":57056,"epoch":"2026-05-24T23:31:04.719072Z","epoch_age_seconds":74024,"freshness":"FRESH","line1":"1 57056U 23088J   26144.97991573  .00001516  00000+0  64623-4 0  9998","line2":"2 57056  43.0056  39.5036 0001329 249.2012 110.8697 15.27572105162000","mean_motion":15.27572105,"eccentricity":0.0001329,"inclination_deg":43.0056,"raan_deg":39.5036,"arg_perigee_deg":249.2012,"mean_anomaly_deg":110.8697,"bstar":6.4623e-5,"rev_number":16200,"period_min":94.267235915518,"perigee_km":482.16088183769,"apogee_km":483.98459138568,"semimajor_km":6861.2097366117,"source":"CELESTRAK","updated_at":"2026-05-25T13:38:18.209607Z"}}